Location: Leo
(52.0556°N, 112.3605°W)
Time: 11:12:51
(UTC+00:00)

FO-29 - Pass Details

Date: 01 December 2023
Orbit: 799 x 1322 km, 98.6° (Epoch: 01 March)

Event Time Altitude Azimuth Distance (km) Brightness Sun altitude
Rises 09:21:05 0° 20° (NNE) 4,059 13.2 -51.6°
Reaches altitude 10° 09:24:02 10° 30° (NNE) 3,163 12.6 -51.3°
Enters shadow 09:26:36 20° 46° (NE) 2,515 12.0 -50.9°
